﻿測定場所 (Monitoring sites),日付 (Measurement date),時間 (Measurement time),線量率 最大値 (max) μGy/h,線量率 最小値 (min) μGy/h,線量率 平均値 (average) μGy/h,
大田 (Ota),2022-07-31,23:01～24:00,0.0367,0.0315,0.0341,
大田 (Ota),2022-07-31,22:01～23:00,0.0363,0.0322,0.0339,
大田 (Ota),2022-07-31,21:01～22:00,0.0369,0.0318,0.0342,
大田 (Ota),2022-07-31,20:01～21:00,0.0367,0.0318,0.0341,
大田 (Ota),2022-07-31,19:01～20:00,0.0368,0.0312,0.0343,
大田 (Ota),2022-07-31,18:01～19:00,0.0370,0.0321,0.0342,
大田 (Ota),2022-07-31,17:01～18:00,0.0367,0.0322,0.0342,
大田 (Ota),2022-07-31,16:01～17:00,0.0370,0.0313,0.0339,
大田 (Ota),2022-07-31,15:01～16:00,0.0358,0.0315,0.0337,
大田 (Ota),2022-07-31,14:01～15:00,0.0355,0.0319,0.0337,
大田 (Ota),2022-07-31,13:01～14:00,0.0362,0.0315,0.0338,
大田 (Ota),2022-07-31,12:01～13:00,0.0356,0.0313,0.0336,
大田 (Ota),2022-07-31,11:01～12:00,0.0360,0.0312,0.0338,
大田 (Ota),2022-07-31,10:01～11:00,0.0360,0.0322,0.0339,
大田 (Ota),2022-07-31,09:01～10:00,0.0361,0.0312,0.0339,
大田 (Ota),2022-07-31,08:01～09:00,0.0360,0.0312,0.0340,
大田 (Ota),2022-07-31,07:01～08:00,0.0358,0.0317,0.0343,
大田 (Ota),2022-07-31,06:01～07:00,0.0377,0.0317,0.0341,
大田 (Ota),2022-07-31,05:01～06:00,0.0373,0.0322,0.0346,
大田 (Ota),2022-07-31,04:01～05:00,0.0376,0.0327,0.0347,
大田 (Ota),2022-07-31,03:01～04:00,0.0368,0.0325,0.0348,
大田 (Ota),2022-07-31,02:01～03:00,0.0385,0.0325,0.0348,
大田 (Ota),2022-07-31,01:01～02:00,0.0368,0.0322,0.0346,
大田 (Ota),2022-07-31,00:01～01:00,0.0371,0.0318,0.0342,
大田 (Ota),2022-07-30,23:01～24:00,0.0357,0.0308,0.0341,
大田 (Ota),2022-07-30,22:01～23:00,0.0363,0.0322,0.0342,
大田 (Ota),2022-07-30,21:01～22:00,0.0360,0.0313,0.0339,
大田 (Ota),2022-07-30,20:01～21:00,0.0360,0.0316,0.0338,
大田 (Ota),2022-07-30,19:01～20:00,0.0371,0.0320,0.0339,
大田 (Ota),2022-07-30,18:01～19:00,0.0363,0.0314,0.0339,
大田 (Ota),2022-07-30,17:01～18:00,0.0361,0.0318,0.0340,
大田 (Ota),2022-07-30,16:01～17:00,0.0357,0.0314,0.0336,
大田 (Ota),2022-07-30,15:01～16:00,0.0363,0.0311,0.0338,
大田 (Ota),2022-07-30,14:01～15:00,0.0360,0.0313,0.0335,
大田 (Ota),2022-07-30,13:01～14:00,0.0358,0.0311,0.0337,
大田 (Ota),2022-07-30,12:01～13:00,0.0362,0.0320,0.0340,
大田 (Ota),2022-07-30,11:01～12:00,0.0353,0.0319,0.0339,
大田 (Ota),2022-07-30,10:01～11:00,0.0363,0.0318,0.0340,
大田 (Ota),2022-07-30,09:01～10:00,0.0359,0.0308,0.0338,
大田 (Ota),2022-07-30,08:01～09:00,0.0361,0.0322,0.0342,
大田 (Ota),2022-07-30,07:01～08:00,0.0367,0.0315,0.0342,
大田 (Ota),2022-07-30,06:01～07:00,0.0367,0.0323,0.0342,
大田 (Ota),2022-07-30,05:01～06:00,0.0378,0.0315,0.0341,
大田 (Ota),2022-07-30,04:01～05:00,0.0365,0.0310,0.0338,
大田 (Ota),2022-07-30,03:01～04:00,0.0364,0.0312,0.0340,
大田 (Ota),2022-07-30,02:01～03:00,0.0358,0.0322,0.0340,
大田 (Ota),2022-07-30,01:01～02:00,0.0365,0.0317,0.0341,
大田 (Ota),2022-07-30,00:01～01:00,0.0357,0.0317,0.0337,
大田 (Ota),2022-07-29,23:01～24:00,0.0370,0.0318,0.0336,
大田 (Ota),2022-07-29,22:01～23:00,0.0363,0.0318,0.0338,
大田 (Ota),2022-07-29,21:01～22:00,0.0360,0.0318,0.0339,
大田 (Ota),2022-07-29,20:01～21:00,0.0370,0.0319,0.0339,
大田 (Ota),2022-07-29,19:01～20:00,0.0362,0.0312,0.0335,
大田 (Ota),2022-07-29,18:01～19:00,0.0371,0.0312,0.0337,
大田 (Ota),2022-07-29,17:01～18:00,0.0369,0.0320,0.0339,
大田 (Ota),2022-07-29,16:01～17:00,0.0357,0.0318,0.0336,
大田 (Ota),2022-07-29,15:01～16:00,0.0360,0.0312,0.0337,
大田 (Ota),2022-07-29,14:01～15:00,0.0353,0.0302,0.0334,
大田 (Ota),2022-07-29,13:01～14:00,0.0361,0.0308,0.0334,
大田 (Ota),2022-07-29,12:01～13:00,0.0369,0.0306,0.0337,
大田 (Ota),2022-07-29,11:01～12:00,0.0362,0.0310,0.0335,
大田 (Ota),2022-07-29,10:01～11:00,0.0360,0.0306,0.0336,
大田 (Ota),2022-07-29,09:01～10:00,0.0365,0.0307,0.0335,
大田 (Ota),2022-07-29,08:01～09:00,0.0353,0.0313,0.0334,
大田 (Ota),2022-07-29,07:01～08:00,0.0362,0.0315,0.0338,
大田 (Ota),2022-07-29,06:01～07:00,0.0369,0.0318,0.0340,
大田 (Ota),2022-07-29,05:01～06:00,0.0370,0.0308,0.0344,
大田 (Ota),2022-07-29,04:01～05:00,0.0353,0.0311,0.0336,
大田 (Ota),2022-07-29,03:01～04:00,0.0358,0.0318,0.0336,
大田 (Ota),2022-07-29,02:01～03:00,0.0363,0.0314,0.0336,
大田 (Ota),2022-07-29,01:01～02:00,0.0357,0.0313,0.0335,
大田 (Ota),2022-07-29,00:01～01:00,0.0362,0.0316,0.0337,
大田 (Ota),2022-07-28,23:01～24:00,0.0360,0.0315,0.0337,
大田 (Ota),2022-07-28,22:01～23:00,0.0367,0.0315,0.0338,
大田 (Ota),2022-07-28,21:01～22:00,0.0367,0.0315,0.0336,
大田 (Ota),2022-07-28,20:01～21:00,0.0359,0.0318,0.0336,
大田 (Ota),2022-07-28,19:01～20:00,0.0368,0.0312,0.0336,
大田 (Ota),2022-07-28,18:01～19:00,0.0364,0.0311,0.0336,
大田 (Ota),2022-07-28,17:01～18:00,0.0353,0.0306,0.0334,
大田 (Ota),2022-07-28,16:01～17:00,0.0357,0.0314,0.0335,
大田 (Ota),2022-07-28,15:01～16:00,0.0348,0.0300,0.0320,
大田 (Ota),2022-07-28,14:01～15:00,0.0341,0.0301,0.0322,
大田 (Ota),2022-07-28,13:01～14:00,0.0363,0.0315,0.0334,
大田 (Ota),2022-07-28,12:01～13:00,0.0356,0.0308,0.0337,
大田 (Ota),2022-07-28,11:01～12:00,0.0363,0.0307,0.0334,
大田 (Ota),2022-07-28,10:01～11:00,0.0355,0.0312,0.0332,
大田 (Ota),2022-07-28,09:01～10:00,0.0357,0.0318,0.0335,
大田 (Ota),2022-07-28,08:01～09:00,0.0353,0.0303,0.0331,
大田 (Ota),2022-07-28,07:01～08:00,0.0349,0.0311,0.0331,
大田 (Ota),2022-07-28,06:01～07:00,0.0352,0.0305,0.0332,
大田 (Ota),2022-07-28,05:01～06:00,0.0365,0.0318,0.0336,
大田 (Ota),2022-07-28,04:01～05:00,0.0366,0.0315,0.0337,
大田 (Ota),2022-07-28,03:01～04:00,0.0367,0.0317,0.0338,
大田 (Ota),2022-07-28,02:01～03:00,0.0355,0.0315,0.0335,
大田 (Ota),2022-07-28,01:01～02:00,0.0369,0.0315,0.0336,
大田 (Ota),2022-07-28,00:01～01:00,0.0358,0.0318,0.0336,
大田 (Ota),2022-07-27,23:01～24:00,0.0376,0.0315,0.0332,
大田 (Ota),2022-07-27,22:01～23:00,0.0354,0.0317,0.0336,
大田 (Ota),2022-07-27,21:01～22:00,0.0360,0.0309,0.0336,
大田 (Ota),2022-07-27,20:01～21:00,0.0356,0.0308,0.0334,
大田 (Ota),2022-07-27,19:01～20:00,0.0367,0.0302,0.0334,
大田 (Ota),2022-07-27,18:01～19:00,0.0367,0.0308,0.0333,
大田 (Ota),2022-07-27,17:01～18:00,0.0355,0.0313,0.0335,
大田 (Ota),2022-07-27,16:01～17:00,0.0358,0.0306,0.0330,
大田 (Ota),2022-07-27,15:01～16:00,0.0357,0.0304,0.0333,
大田 (Ota),2022-07-27,14:01～15:00,0.0365,0.0309,0.0332,
大田 (Ota),2022-07-27,13:01～14:00,0.0361,0.0308,0.0331,
大田 (Ota),2022-07-27,12:01～13:00,0.0355,0.0304,0.0333,
大田 (Ota),2022-07-27,11:01～12:00,0.0352,0.0301,0.0332,
大田 (Ota),2022-07-27,10:01～11:00,0.0351,0.0309,0.0334,
大田 (Ota),2022-07-27,09:01～10:00,0.0359,0.0301,0.0330,
大田 (Ota),2022-07-27,08:01～09:00,0.0353,0.0306,0.0330,
大田 (Ota),2022-07-27,07:01～08:00,0.0352,0.0301,0.0330,
大田 (Ota),2022-07-27,06:01～07:00,0.0358,0.0311,0.0334,
大田 (Ota),2022-07-27,05:01～06:00,0.0352,0.0308,0.0331,
大田 (Ota),2022-07-27,04:01～05:00,0.0353,0.0311,0.0330,
大田 (Ota),2022-07-27,03:01～04:00,0.0351,0.0306,0.0329,
大田 (Ota),2022-07-27,02:01～03:00,0.0349,0.0306,0.0329,
大田 (Ota),2022-07-27,01:01～02:00,0.0353,0.0303,0.0329,
大田 (Ota),2022-07-27,00:01～01:00,0.0353,0.0303,0.0329,
大田 (Ota),2022-07-26,23:01～24:00,0.0356,0.0311,0.0328,
大田 (Ota),2022-07-26,22:01～23:00,0.0353,0.0307,0.0329,
大田 (Ota),2022-07-26,21:01～22:00,0.0349,0.0301,0.0330,
大田 (Ota),2022-07-26,20:01～21:00,0.0354,0.0308,0.0329,
大田 (Ota),2022-07-26,19:01～20:00,0.0355,0.0303,0.0331,
大田 (Ota),2022-07-26,18:01～19:00,0.0350,0.0308,0.0330,
大田 (Ota),2022-07-26,17:01～18:00,0.0361,0.0296,0.0331,
大田 (Ota),2022-07-26,16:01～17:00,0.0354,0.0308,0.0329,
大田 (Ota),2022-07-26,15:01～16:00,0.0351,0.0312,0.0331,
大田 (Ota),2022-07-26,14:01～15:00,0.0353,0.0307,0.0330,
大田 (Ota),2022-07-26,13:01～14:00,0.0353,0.0311,0.0332,
大田 (Ota),2022-07-26,12:01～13:00,0.0355,0.0300,0.0331,
大田 (Ota),2022-07-26,11:01～12:00,0.0366,0.0311,0.0343,
大田 (Ota),2022-07-26,10:01～11:00,0.0347,0.0307,0.0328,
大田 (Ota),2022-07-26,09:01～10:00,0.0354,0.0301,0.0333,
大田 (Ota),2022-07-26,08:01～09:00,0.0356,0.0320,0.0339,
大田 (Ota),2022-07-26,07:01～08:00,0.0366,0.0325,0.0343,
大田 (Ota),2022-07-26,06:01～07:00,0.0363,0.0323,0.0343,
大田 (Ota),2022-07-26,05:01～06:00,0.0381,0.0316,0.0340,
大田 (Ota),2022-07-26,04:01～05:00,0.0367,0.0319,0.0341,
大田 (Ota),2022-07-26,03:01～04:00,0.0380,0.0332,0.0356,
大田 (Ota),2022-07-26,02:01～03:00,0.0376,0.0322,0.0353,
大田 (Ota),2022-07-26,01:01～02:00,0.0362,0.0321,0.0342,
大田 (Ota),2022-07-26,00:01～01:00,0.0367,0.0323,0.0340,
大田 (Ota),2022-07-25,23:01～24:00,0.0370,0.0317,0.0339,
大田 (Ota),2022-07-25,22:01～23:00,0.0360,0.0320,0.0338,
大田 (Ota),2022-07-25,21:01～22:00,0.0367,0.0316,0.0338,
大田 (Ota),2022-07-25,20:01～21:00,0.0365,0.0316,0.0339,
大田 (Ota),2022-07-25,19:01～20:00,0.0364,0.0319,0.0341,
大田 (Ota),2022-07-25,18:01～19:00,0.0360,0.0315,0.0337,
大田 (Ota),2022-07-25,17:01～18:00,0.0356,0.0316,0.0338,
大田 (Ota),2022-07-25,16:01～17:00,0.0365,0.0307,0.0336,
大田 (Ota),2022-07-25,15:01～16:00,0.0356,0.0309,0.0338,
大田 (Ota),2022-07-25,14:01～15:00,0.0367,0.0315,0.0336,
大田 (Ota),2022-07-25,13:01～14:00,0.0354,0.0306,0.0334,
大田 (Ota),2022-07-25,12:01～13:00,0.0367,0.0310,0.0338,
大田 (Ota),2022-07-25,11:01～12:00,0.0362,0.0319,0.0338,
大田 (Ota),2022-07-25,10:01～11:00,0.0371,0.0318,0.0342,
大田 (Ota),2022-07-25,09:01～10:00,0.0372,0.0323,0.0341,
大田 (Ota),2022-07-25,08:01～09:00,0.0363,0.0320,0.0341,
大田 (Ota),2022-07-25,07:01～08:00,0.0368,0.0324,0.0342,
大田 (Ota),2022-07-25,06:01～07:00,0.0378,0.0322,0.0345,
大田 (Ota),2022-07-25,05:01～06:00,0.0365,0.0312,0.0342,
大田 (Ota),2022-07-25,04:01～05:00,0.0364,0.0309,0.0338,
大田 (Ota),2022-07-25,03:01～04:00,0.0363,0.0312,0.0340,
大田 (Ota),2022-07-25,02:01～03:00,0.0370,0.0311,0.0341,
大田 (Ota),2022-07-25,01:01～02:00,0.0360,0.0322,0.0341,
大田 (Ota),2022-07-25,00:01～01:00,0.0372,0.0315,0.0343,
